Wind_Speed
41 42 42 42 43 42 42 41 41 42 43 46 49 51 53 52 51 50 48 48 48 47 45 44 44 44 43 42 42 43 45 46 47 49 50 50 51 51 52 52 52 52 52 50 48 47 46 46 46 46 44 43 43 44 45 46 47 48 48 47 46 46 46
41 42 43 43 44 44 44 44 43 43 42 42 44 46 50 52 52 52 49 49 50 48 46 45 44 43 43 42 41 42 44 45 47 49 50 50 50 51 51 51 50 50 50 49 48 46 44 45 45 44 44 43 43 44 44 45 47 47 47 46 46 46 47
41 42 42 42 43 43 44 44 44 44 43 42 41 42 44 47 50 51 51 50 51 49 47 46 45 44 43 42 41 42 43 44 45 47 49 49 49 49 50 50 49 49 48 48 48 46 44 44 44 43 43 42 42 43 43 44 45 46 45 45 46 47 47
39 40 41 42 42 42 42 43 43 44 44 43 42 41 41 42 45 49 50 50 50 50 49 47 46 46 44 43 41 41 41 42 44 46 48 48 48 48 49 49 49 48 47 47 46 45 44 43 43 43 42 40 41 42 43 44 45 45 45 45 46 46 46
37 38 39 40 40 40 40 40 41 41 42 42 42 41 41 40 42 45 48 50 49 50 50 49 48 46 45 43 42 41 41 42 43 45 47 48 47 47 48 48 48 47 46 46 45 44 42 42 42 41 41 40 40 41 43 44 44 44 44 44 44 45 45
35 36 36 37 38 38 38 38 38 39 40 41 41 42 42 42 41 42 45 48 49 49 49 50 49 47 45 44 43 42 42 41 41 44 46 46 47 48 48 48 47 47 46 45 43 41 40 39 39 39 38 38 38 40 43 43 43 43 43 43 42 42 43
32 32 33 35 35 36 36 36 37 37 38 39 40 41 42 43 43 42 43 45 48 49 48 49 49 48 46 46 43 42 42 41 41 43 45 45 46 48 49 48 47 47 46 44 41 39 38 37 37 36 36 35 37 40 42 42 42 42 41 41 41 41 41
28 29 30 32 33 34 34 35 35 36 36 37 38 40 42 43 43 43 43 44 46 49 48 47 49 49 47 46 44 43 43 42 42 44 46 46 47 48 49 47 46 45 45 42 40 38 37 36 36 35 34 35 37 39 40 41 41 41 40 39 39 40 40
26 27 28 29 31 32 32 33 33 34 35 36 38 39 41 42 43 43 44 45 47 50 50 47 47 49 47 46 45 44 43 43 43 45 46 46 47 47 47 45 44 45 44 41 38 37 36 36 36 34 34 36 37 38 39 39 40 40 40 39 39 38 38
25 26 27 28 29 29 30 31 32 32 34 36 38 40 41 43 43 43 44 46 48 50 50 47 46 48 48 46 44 44 43 43 44 44 45 46 46 46 45 44 44 45 42 39 37 36 36 37 36 34 35 36 37 37 38 38 38 39 39 38 39 38 37
25 26 28 28 28 28 30 31 31 31 33 34 36 39 41 43 44 44 44 45 49 50 49 46 45 47 48 46 44 43 43 44 44 44 44 45 46 45 45 45 45 43 40 38 37 37 37 37 35 34 35 35 35 36 37 37 38 38 37 37 38 39 38
25 27 28 28 29 29 29 30 30 31 32 34 35 37 39 41 43 44 44 44 48 49 47 44 44 45 47 46 44 43 42 43 43 43 44 45 46 46 45 44 43 42 39 38 37 37 37 36 35 34 33 33 34 35 36 36 36 36 36 36 38 39 38
26 27 27 28 29 29 29 29 30 30 31 33 34 35 38 40 41 42 43 43 45 47 45 42 42 44 45 45 44 42 42 42 42 43 43 44 45 45 43 42 41 40 38 37 37 37 36 34 34 34 33 32 33 34 35 35 34 34 35 36 37 38 37
26 26 27 29 29 28 28 29 29 29 30 32 33 34 37 40 38 37 38 39 41 43 42 41 40 41 43 44 44 43 41 41 42 41 41 41 41 41 40 39 39 38 36 36 36 36 35 33 33 33 32 31 32 33 33 33 33 34 34 35 36 36 35
26 26 27 28 27 26 27 28 28 29 29 30 31 33 36 36 33 32 32 34 37 39 40 38 37 38 40 42 44 43 40 40 40 40 39 39 39 38 38 37 36 34 34 34 36 35 34 33 32 32 31 30 30 31 31 31 32 33 33 34 34 34 34
25 26 26 26 26 26 28 28 28 28 27 28 30 31 32 30 28 28 29 31 34 36 36 35 35 36 39 41 42 40 38 38 38 38 38 38 37 36 36 34 32 31 32 34 36 35 34 33 31 30 29 29 29 29 29 30 31 31 32 33 34 34 34
24 25 25 25 26 27 29 28 26 25 25 26 28 28 26 26 25 26 28 30 32 33 33 32 33 34 36 38 39 37 36 37 38 38 38 37 35 34 32 30 29 31 33 35 35 34 33 31 29 27 27 27 28 27 28 29 30 30 31 33 34 35 34
23 23 24 25 26 28 29 27 24 23 24 25 26 25 24 26 25 25 27 28 29 29 28 28 29 30 32 34 35 35 35 37 38 38 36 34 31 29 27 27 29 32 34 33 32 31 30 29 27 26 25 25 25 26 27 28 29 29 31 32 33 35 35
22 23 23 24 26 27 26 25 23 22 23 23 23 23 24 25 24 24 23 22 22 22 23 24 26 27 29 31 33 35 36 36 36 34 31 28 26 25 25 28 31 32 32 30 29 28 27 26 26 25 24 24 24 25 26 28 28 29 30 31 32 33 35
22 22 21 23 25 23 21 21 20 20 21 22 21 21 21 21 22 21 18 16 16 18 20 22 23 23 26 28 31 33 35 34 31 27 25 24 24 25 27 31 32 30 29 27 26 25 24 25 25 24 23 23 23 24 25 27 28 29 30 31 31 31 33
21 20 19 22 22 18 16 17 18 20 21 20 17 18 18 17 18 17 14 13 14 16 19 21 21 21 22 25 27 29 30 28 25 23 23 23 24 27 30 30 29 27 25 24 23 23 23 23 23 22 22 22 23 24 25 26 27 28 28 29 30 31 32
20 18 18 20 17 13 13 15 16 18 18 15 14 15 14 13 13 12 11 11 13 16 18 19 19 19 21 23 25 25 24 23 22 22 23 24 27 29 28 27 25 24 23 22 21 21 21 21 21 21 21 22 23 24 25 26 26 26 27 27 29 30 31
18 18 18 18 14 12 12 12 14 15 12 9 10 11 11 9 8 8 9 11 13 15 16 16 17 18 20 21 22 22 22 22 22 23 24 26 27 27 25 23 22 21 20 19 19 20 20 20 20 20 20 21 22 23 24 25 25 25 26 27 29 30 30
18 18 17 16 13 12 12 11 12 11 7 5 5 6 6 6 8 8 8 10 13 14 14 15 16 17 19 20 21 22 23 24 23 24 25 25 24 23 21 21 20 19 19 19 19 19 19 19 19 19 20 21 22 22 23 23 24 24 26 27 28 29 30
18 17 16 15 14 12 10 9 9 6 3 4 4 5 5 7 9 9 8 10 12 13 13 14 15 17 19 20 21 23 24 24 23 23 23 22 21 20 19 19 18 18 18 18 18 18 18 18 18 19 19 20 21 21 21 22 23 25 26 27 27 28 29
18 16 14 15 15 14 11 8 6 3 2 4 7 8 9 9 10 11 10 11 12 12 12 12 13 16 18 20 21 22 22 20 20 21 21 20 19 18 18 18 18 17 17 17 17 17 17 17 18 18 19 19 19 20 21 22 23 25 26 26 26 26 28
17 14 13 14 14 13 10 7 5 3 2 4 9 12 10 10 10 8 7 9 10 11 10 10 11 14 17 19 20 19 17 17 18 19 18 18 18 18 18 17 16 16 15 15 16 16 16 17 18 18 18 18 19 19 21 21 23 24 24 25 25 25 26
15 13 14 14 13 10 8 7 5 5 5 6 12 14 11 10 10 7 5 5 7 8 10 10 11 12 14 16 16 16 17 18 18 17 16 16 16 16 16 15 15 14 15 15 15 16 16 17 17 17 17 18 19 19 20 21 22 23 23 24 25 25 25
17 16 16 15 12 9 7 7 6 6 7 8 15 17 12 10 10 8 6 6 5 5 7 9 9 10 12 13 13 14 16 17 16 15 15 15 15 15 14 14 14 14 15 15 15 16 16 16 16 16 17 18 18 18 19 20 21 22 22 24 25 25 26
19 19 17 15 14 12 10 9 7 7 8 9 13 15 14 11 11 11 9 6 4 3 4 5 7 9 11 13 13 14 16 16 15 15 14 14 13 13 14 14 14 14 15 15 15 15 15 15 15 16 17 17 17 17 18 19 20 21 22 23 24 25 27
18 18 18 18 17 16 14 12 9 8 9 10 10 11 12 10 10 11 10 6 4 2 3 4 6 9 12 13 14 16 17 16 15 14 13 13 13 14 14 14 14 14 14 14 14 13 13 14 14 16 16 16 16 16 17 18 19 20 21 22 24 25 26
19 19 19 19 19 17 14 11 9 9 12 13 12 11 11 10 9 10 9 6 4 3 5 6 7 10 13 15 16 17 18 17 15 14 13 13 14 14 14 14 14 13 13 13 13 12 12 13 14 15 15 14 15 16 17 18 19 20 20 21 23 25 26
20 17 15 14 13 11 8 8 8 9 14 16 14 12 12 11 11 11 10 7 4 4 5 8 9 11 15 18 18 18 18 17 15 14 14 14 15 15 15 14 13 12 12 12 11 12 12 13 14 14 14 13 14 15 16 17 18 19 20 21 22 23 25
18 15 12 9 5 4 4 6 7 9 13 16 16 14 14 13 13 13 11 8 6 5 6 8 10 13 16 19 19 19 18 16 15 14 14 15 15 14 14 13 12 12 11 11 11 12 12 13 13 12 13 13 14 15 16 17 18 19 20 21 22 23 24
19 16 14 12 8 2 4 5 7 9 12 14 15 15 14 14 13 11 9 7 7 8 8 9 10 12 15 17 19 19 18 16 15 14 14 15 14 14 13 12 12 11 11 11 12 12 12 12 12 12 12 13 14 15 16 17 18 19 20 21 22 23 24
21 19 16 15 12 7 4 4 7 10 11 12 13 14 14 13 11 10 9 7 8 10 10 10 10 12 15 17 17 18 17 15 15 15 15 15 15 13 12 12 11 11 10 11 12 12 11 11 11 11 12 13 14 15 17 18 19 19 20 21 23 24 25
Wind_Direction
267 267 268 268 268 267 266 266 264 263 263 261 257 251 246 244 243 243 243 243 244 246 248 252 254 256 258 258 257 254 252 253 254 253 252 252 252 253 253 253 254 255 258 259 258 257 255 253 253 252 251 251 252 254 256 258 259 261 262 264 266 267 268
271 270 269 269 268 268 267 266 265 265 264 263 263 260 255 249 245 243 242 243 243 244 246 249 252 255 257 257 256 254 252 252 252 252 252 252 253 254 254 254 254 256 258 260 260 258 255 253 253 252 253 254 254 255 257 259 260 262 263 265 266 266 268
274 273 272 271 270 268 267 266 265 265 265 264 263 263 261 258 252 246 242 242 242 242 244 246 249 252 254 254 254 253 252 251 251 251 251 252 252 253 254 254 255 256 258 260 261 260 257 255 254 254 254 255 256 258 260 260 262 263 263 264 265 266 268
275 274 273 272 271 270 268 266 265 264 264 264 263 262 262 261 259 253 248 245 243 242 242 243 245 247 250 251 251 251 251 250 250 249 250 252 253 253 253 254 254 256 258 259 260 260 260 258 257 257 257 257 258 260 261 261 262 262 263 263 264 267 269
272 272 272 272 271 270 268 267 265 264 264 264 263 263 262 260 260 258 253 250 247 243 241 241 242 244 246 248 248 247 247 248 248 248 249 251 252 251 252 253 254 255 257 258 259 260 261 261 261 261 261 262 262 263 263 263 263 263 263 263 264 266 268
270 270 270 271 271 270 269 268 266 265 265 264 264 263 262 261 259 258 256 252 250 248 244 241 241 242 243 245 245 244 244 245 247 248 249 250 250 249 250 251 253 254 256 257 258 261 263 264 264 265 265 267 268 268 268 268 267 266 265 264 265 265 267
269 269 269 269 269 269 269 268 268 267 266 265 264 263 262 261 259 257 254 252 251 251 248 243 241 241 240 242 243 242 242 243 244 246 246 247 248 248 249 250 252 253 255 257 259 261 264 266 266 267 268 269 270 271 271 271 271 269 267 266 266 266 268
270 269 268 267 268 268 268 268 268 268 268 267 265 263 262 261 261 258 253 248 247 249 250 245 241 240 240 240 240 239 239 240 242 243 244 244 245 247 249 250 252 253 255 257 259 261 264 266 267 268 269 270 270 271 272 273 273 272 269 268 268 268 270
273 271 270 269 268 267 267 267 268 270 271 270 268 266 264 262 262 261 255 247 243 245 249 246 240 238 238 238 238 237 237 238 239 241 243 244 244 246 249 251 252 254 255 258 261 264 266 267 268 269 269 269 270 271 272 272 272 271 271 271 270 270 272
276 274 272 270 269 268 268 269 271 272 272 271 269 267 265 263 262 263 259 251 242 242 247 247 241 237 237 237 236 235 235 236 238 240 241 243 243 244 247 249 251 254 256 259 262 265 266 266 268 269 270 270 270 271 271 271 270 270 270 272 272 273 274
276 274 272 271 269 268 269 271 273 274 272 271 268 266 264 263 262 262 260 254 245 242 245 247 243 238 236 236 234 234 234 234 236 238 240 241 241 241 243 246 249 252 255 259 262 263 264 266 268 269 269 270 271 271 271 270 270 270 271 273 274 275 276
276 273 271 270 268 268 270 273 274 274 274 273 271 268 265 264 262 262 261 255 247 245 245 247 246 241 237 236 234 233 233 234 236 237 238 239 239 240 242 246 249 252 254 258 261 261 262 264 267 268 269 270 270 270 270 270 270 272 274 275 276 276 278
276 273 270 267 267 268 271 274 275 277 277 276 274 271 269 267 263 260 259 253 247 247 246 245 246 243 239 236 234 232 232 233 235 236 238 239 240 241 243 246 248 251 255 258 259 260 261 263 266 267 268 268 268 269 269 270 272 274 275 275 276 278 282
277 274 271 268 267 270 273 277 279 280 280 277 274 273 273 270 262 255 253 249 246 246 245 242 244 243 239 236 233 230 230 231 233 235 236 238 240 241 242 244 247 251 255 256 257 258 260 263 265 266 266 266 267 267 269 271 273 273 274 275 277 282 287
278 274 272 271 272 275 278 282 284 284 281 276 274 277 278 271 257 246 244 243 241 240 240 239 239 238 237 235 231 229 229 230 231 233 235 237 238 239 241 244 247 251 253 254 255 257 260 263 264 265 266 266 266 267 269 272 274 275 276 277 281 286 290
278 276 276 277 280 282 284 286 286 285 280 275 277 282 277 264 249 236 233 234 235 236 237 235 233 232 234 233 230 227 228 228 230 232 233 235 237 238 241 244 247 250 252 253 255 257 259 262 262 263 264 264 264 266 269 272 275 278 281 283 286 289 290
281 281 282 283 284 284 285 285 284 282 277 275 280 282 269 253 240 229 227 232 235 236 235 231 228 229 231 231 229 226 225 226 228 230 231 233 235 238 242 246 248 250 250 250 253 255 257 259 260 261 262 262 265 268 271 274 277 281 284 287 290 292 293
284 283 283 284 284 284 284 283 280 277 273 273 277 276 261 246 237 229 230 235 237 235 232 228 228 228 228 229 228 225 224 224 227 229 230 232 236 239 243 247 247 247 247 248 251 254 257 259 260 261 262 264 268 272 274 277 280 284 288 290 292 294 295
286 286 287 287 287 286 282 279 277 273 270 271 271 267 259 250 242 235 235 237 236 234 231 229 228 228 227 227 225 224 224 225 227 229 231 234 236 237 240 243 243 243 244 246 249 252 256 259 260 261 262 266 270 274 276 280 284 288 290 291 293 296 299
295 297 298 297 294 289 279 273 273 270 270 271 266 260 260 256 246 239 239 239 236 234 233 231 229 227 227 227 225 224 225 227 228 230 231 231 231 233 236 238 238 239 241 243 247 251 254 257 260 262 266 270 274 276 279 283 286 288 290 293 297 301 304
306 306 306 306 302 291 275 270 274 276 275 270 259 253 256 252 244 241 242 239 232 230 230 230 228 226 226 227 226 226 228 228 227 224 223 224 228 231 233 233 233 235 239 242 246 250 253 256 260 264 268 272 276 279 282 284 285 288 292 297 301 303 304
310 311 312 314 308 289 276 281 287 288 282 268 251 248 251 247 240 238 234 226 221 221 224 226 226 223 223 224 224 225 226 224 219 216 218 222 226 228 228 228 230 233 237 241 246 249 253 256 260 264 269 273 277 280 282 283 286 291 297 301 302 302 303
315 316 315 318 313 289 281 293 300 294 279 255 243 249 251 237 218 211 212 209 205 207 213 220 223 222 220 219 219 218 219 216 212 213 218 221 222 222 222 224 229 233 236 241 245 248 252 256 260 265 270 273 276 278 280 285 290 296 300 300 300 300 302
323 321 318 321 318 300 288 291 301 299 274 236 232 243 234 199 183 186 198 197 193 197 207 216 220 219 217 216 215 214 214 213 210 211 215 216 216 217 220 224 227 231 235 239 243 246 251 256 261 266 269 272 275 277 282 289 294 296 297 297 298 301 304
327 324 321 322 321 315 303 290 296 304 269 219 211 199 178 168 173 182 189 189 190 198 208 213 215 215 215 215 212 209 210 208 204 203 207 209 212 216 220 223 226 229 233 237 241 246 252 256 261 265 267 270 274 279 285 290 292 293 294 296 300 304 307
330 327 324 321 313 310 305 293 288 293 256 216 202 185 167 164 175 183 185 189 195 201 204 208 210 211 211 207 203 202 203 200 195 196 200 206 210 214 217 221 224 228 231 236 242 248 252 256 260 263 266 270 276 280 285 288 289 292 295 298 303 307 309
328 321 321 325 320 310 302 294 276 256 252 222 201 185 166 165 177 175 174 190 201 203 200 199 203 206 205 199 195 194 194 190 191 196 201 206 210 213 216 220 223 226 231 237 243 248 253 256 259 262 266 272 276 280 283 286 289 293 297 302 306 308 310
316 310 311 319 326 326 318 306 273 242 247 224 195 179 165 171 179 160 130 159 189 203 205 202 202 202 201 196 192 188 187 190 194 199 203 207 212 214 217 219 222 226 232 238 244 249 252 255 258 263 268 273 276 279 284 289 292 297 301 305 307 307 309
308 310 309 307 310 314 313 308 281 246 240 214 188 179 178 186 186 168 141 140 161 190 207 209 202 194 191 191 189 188 192 196 199 201 205 210 214 215 217 219 222 228 234 240 245 248 251 254 260 266 270 273 276 281 288 293 296 300 303 305 307 308 310
310 310 306 300 296 293 289 286 275 246 227 209 193 189 189 190 184 176 166 154 152 177 216 220 203 188 186 189 191 194 200 203 203 205 210 214 216 217 217 219 224 229 235 240 245 248 252 257 264 269 271 275 280 286 292 296 299 302 305 306 308 309 311
311 307 303 296 291 287 279 269 258 232 207 197 194 194 194 190 185 181 174 165 167 204 259 252 219 197 192 194 197 201 205 206 207 211 215 217 218 218 218 220 225 231 236 241 245 249 255 261 266 269 273 278 285 290 295 297 300 303 306 308 310 310 311
316 312 306 298 292 286 275 259 243 216 193 185 185 193 199 199 191 184 183 186 202 226 247 248 230 207 198 198 201 204 205 207 210 213 216 218 217 217 218 221 226 232 237 242 247 252 259 263 266 270 275 281 287 292 296 299 301 304 307 310 312 312 313
327 324 317 304 291 281 262 239 226 204 186 182 183 187 190 189 186 185 187 195 210 224 236 240 231 214 204 201 202 204 205 208 211 213 214 216 214 214 217 222 227 234 240 244 249 255 259 262 267 272 278 284 289 293 297 299 302 306 310 311 311 312 313
346 353 354 347 319 260 218 209 211 195 182 184 187 185 183 181 182 184 185 190 201 214 228 233 227 217 212 207 202 201 204 207 210 212 213 212 212 213 218 224 231 238 243 247 252 256 259 263 269 275 281 288 293 297 300 302 304 308 310 309 310 311 313
11 19 19 24 38 95 168 186 190 180 176 182 186 188 193 193 191 193 197 203 219 233 238 236 224 215 214 210 202 199 202 205 207 208 208 208 210 213 220 227 235 240 245 249 252 256 261 267 274 281 288 295 299 301 303 305 307 309 309 308 310 311 313
24 31 28 29 40 59 86 140 166 165 169 179 183 191 203 206 208 219 228 228 232 238 243 247 238 219 209 206 203 201 201 203 205 205 205 207 210 215 222 230 236 241 246 250 254 260 266 273 280 287 293 299 302 303 306 309 311 311 311 310 311 313 314
Height
2850 2850 2849 2849 2849 2849 2849 2849 2850 2850 2851 2851 2852 2854 2855 2857 2858 2859 2862 2863 2865 2867 2868 2870 2871 2872 2872 2873 2874 2876 2877 2878 2880 2882 2883 2884 2886 2887 2888 2890 2891 2892 2893 2895 2897 2899 2900 2901 2901 2902 2904 2906 2906 2906 2906 2906 2906 2906 2907 2907 2908 2908 2908
2843 2843 2843 2843 2843 2843 2843 2843 2843 2843 2844 2845 2846 2846 2847 2848 2850 2852 2854 2855 2857 2860 2862 2863 2864 2865 2866 2867 2868 2869 2871 2872 2874 2875 2877 2879 2880 2881 2883 2885 2886 2887 2888 2888 2890 2893 2894 2895 2896 2898 2899 2900 2900 2900 2900 2900 2900 2900 2901 2901 2901 2901 2901
2836 2836 2836 2836 2836 2837 2837 2837 2837 2837 2837 2838 2839 2839 2840 2841 2842 2843 2845 2847 2849 2853 2854 2855 2857 2859 2860 2861 2862 2863 2864 2866 2868 2870 2872 2873 2874 2876 2877 2879 2881 2882 2882 2883 2884 2886 2888 2889 2891 2893 2894 2895 2895 2895 2895 2895 2895 2895 2896 2896 2896 2895 2895
2829 2829 2829 2829 2830 2830 2830 2831 2831 2831 2831 2832 2833 2833 2833 2834 2835 2836 2837 2839 2842 2844 2846 2848 2849 2851 2853 2854 2855 2857 2858 2860 2862 2864 2866 2868 2869 2871 2872 2874 2875 2876 2877 2877 2878 2879 2881 2883 2885 2887 2888 2890 2891 2891 2890 2890 2890 2890 2890 2890 2890 2889 2889
2824 2823 2823 2823 2823 2823 2823 2824 2824 2824 2825 2825 2826 2826 2827 2828 2828 2829 2830 2832 2834 2836 2838 2839 2841 2843 2846 2848 2849 2850 2852 2854 2856 2858 2860 2862 2863 2865 2866 2868 2870 2871 2871 2872 2872 2873 2875 2877 2879 2880 2882 2883 2884 2884 2884 2884 2884 2885 2885 2884 2884 2883 2883
2818 2818 2817 2817 2817 2817 2817 2818 2818 2818 2819 2819 2820 2820 2820 2821 2821 2822 2823 2825 2827 2829 2830 2831 2834 2836 2839 2840 2842 2844 2846 2848 2850 2852 2854 2856 2858 2859 2861 2862 2863 2865 2865 2866 2867 2868 2869 2871 2873 2874 2875 2876 2877 2876 2876 2876 2877 2878 2878 2878 2877 2877 2877
2813 2813 2812 2811 2811 2811 2812 2812 2812 2812 2813 2813 2813 2813 2814 2814 2815 2815 2816 2818 2821 2822 2823 2824 2827 2829 2831 2833 2836 2838 2839 2842 2844 2845 2847 2849 2852 2854 2855 2856 2858 2859 2860 2861 2862 2862 2863 2865 2867 2868 2869 2869 2869 2869 2869 2869 2870 2870 2871 2871 2870 2870 2870
2808 2807 2807 2806 2806 2806 2806 2806 2806 2806 2807 2807 2807 2807 2807 2807 2807 2808 2809 2811 2813 2815 2816 2818 2820 2822 2824 2827 2830 2831 2833 2835 2837 2839 2841 2843 2846 2848 2849 2850 2852 2854 2855 2856 2856 2857 2858 2860 2861 2862 2863 2863 2862 2862 2862 2863 2863 2863 2864 2864 2864 2863 2863
2802 2801 2801 2801 2801 2801 2801 2800 2801 2801 2801 2800 2800 2800 2800 2800 2801 2801 2802 2804 2806 2808 2810 2811 2813 2816 2818 2821 2823 2825 2827 2829 2831 2833 2835 2837 2839 2842 2843 2845 2847 2848 2850 2851 2851 2852 2854 2854 2855 2857 2858 2857 2856 2856 2856 2857 2858 2857 2858 2858 2858 2857 2857
2796 2796 2796 2795 2795 2795 2795 2795 2795 2796 2795 2794 2794 2793 2793 2793 2794 2794 2795 2797 2798 2800 2802 2805 2807 2810 2812 2814 2816 2818 2820 2823 2825 2827 2829 2831 2833 2835 2837 2840 2841 2843 2845 2846 2847 2848 2849 2849 2850 2852 2852 2851 2851 2851 2850 2851 2852 2852 2852 2852 2851 2851 2851
2792 2791 2790 2790 2790 2790 2790 2789 2790 2790 2789 2788 2787 2787 2786 2786 2786 2787 2788 2789 2791 2793 2796 2798 2801 2803 2805 2808 2810 2812 2814 2816 2818 2821 2823 2825 2827 2829 2831 2834 2836 2838 2840 2842 2843 2843 2844 2844 2846 2847 2847 2846 2846 2846 2845 2846 2846 2847 2847 2847 2845 2845 2845
2787 2786 2786 2785 2785 2785 2785 2784 2784 2784 2783 2782 2781 2780 2779 2779 2779 2779 2780 2782 2784 2786 2789 2792 2794 2796 2799 2802 2804 2806 2808 2811 2813 2815 2817 2819 2821 2823 2826 2829 2832 2834 2836 2838 2838 2838 2839 2840 2841 2842 2842 2842 2841 2841 2840 2841 2841 2842 2842 2841 2840 2839 2839
2782 2782 2781 2781 2780 2780 2780 2779 2779 2778 2777 2775 2774 2774 2772 2771 2771 2772 2772 2774 2777 2780 2783 2785 2788 2790 2793 2796 2798 2800 2802 2805 2807 2809 2812 2814 2816 2819 2822 2824 2827 2829 2831 2833 2833 2833 2834 2836 2836 2836 2837 2837 2836 2836 2836 2836 2837 2837 2837 2836 2835 2834 2834
2778 2777 2777 2776 2776 2776 2775 2774 2774 2772 2771 2770 2768 2767 2765 2763 2763 2764 2765 2767 2771 2774 2776 2779 2782 2784 2787 2790 2793 2795 2797 2799 2802 2804 2807 2809 2812 2815 2817 2820 2822 2825 2827 2828 2828 2828 2830 2831 2831 2832 2832 2832 2832 2831 2831 2832 2833 2833 2832 2831 2830 2829 2828
2773 2773 2772 2772 2772 2771 2770 2770 2769 2767 2765 2764 2762 2760 2757 2755 2755 2757 2758 2762 2765 2768 2770 2773 2776 2778 2782 2785 2787 2790 2792 2795 2797 2800 2802 2805 2807 2810 2813 2816 2819 2821 2822 2823 2823 2824 2825 2826 2827 2827 2827 2828 2827 2827 2827 2827 2828 2828 2827 2826 2825 2824 2823
2769 2768 2768 2768 2767 2766 2765 2764 2763 2761 2760 2758 2756 2754 2751 2749 2750 2752 2754 2757 2760 2763 2765 2767 2770 2773 2777 2780 2783 2785 2788 2791 2793 2795 2797 2800 2803 2806 2809 2813 2815 2816 2817 2818 2818 2819 2821 2822 2822 2823 2823 2824 2823 2822 2823 2823 2823 2823 2821 2820 2819 2818 2818
2765 2764 2764 2763 2763 2761 2759 2759 2758 2756 2754 2752 2751 2749 2746 2745 2747 2749 2751 2754 2756 2758 2760 2762 2765 2769 2772 2776 2779 2781 2784 2786 2788 2790 2793 2796 2799 2803 2806 2809 2811 2812 2812 2813 2814 2816 2817 2817 2818 2819 2819 2819 2818 2818 2818 2819 2819 2818 2816 2815 2813 2812 2811
2761 2761 2760 2759 2757 2756 2754 2753 2752 2751 2749 2748 2747 2745 2743 2744 2746 2747 2749 2751 2752 2754 2756 2759 2762 2765 2768 2772 2775 2777 2779 2781 2783 2786 2789 2793 2796 2799 2802 2805 2806 2807 2808 2810 2811 2811 2812 2813 2814 2815 2815 2815 2814 2814 2814 2814 2814 2813 2812 2810 2808 2806 2805
2758 2757 2756 2754 2752 2751 2749 2748 2747 2746 2745 2743 2743 2741 2741 2742 2744 2746 2747 2748 2750 2752 2754 2756 2759 2762 2765 2768 2771 2772 2774 2776 2779 2783 2787 2790 2793 2796 2799 2801 2802 2803 2805 2806 2806 2807 2808 2808 2810 2811 2811 2810 2810 2810 2810 2810 2809 2808 2807 2806 2804 2801 2798
2754 2753 2751 2749 2747 2745 2744 2743 2742 2742 2740 2740 2739 2739 2739 2740 2742 2744 2745 2746 2747 2749 2751 2753 2756 2759 2762 2765 2767 2769 2771 2774 2778 2781 2785 2787 2790 2793 2795 2797 2798 2800 2801 2802 2802 2803 2804 2805 2805 2806 2806 2806 2806 2806 2806 2805 2805 2804 2803 2801 2799 2796 2793
2751 2749 2748 2746 2743 2741 2740 2739 2739 2738 2737 2736 2736 2736 2737 2738 2740 2741 2742 2744 2745 2747 2749 2751 2754 2756 2759 2762 2764 2766 2769 2772 2776 2779 2782 2784 2787 2789 2791 2793 2795 2796 2797 2798 2799 2800 2800 2801 2802 2802 2802 2802 2802 2802 2802 2802 2801 2800 2798 2796 2793 2791 2789
2748 2747 2745 2743 2741 2739 2738 2737 2736 2735 2733 2733 2734 2735 2735 2737 2738 2739 2740 2742 2744 2746 2747 2749 2751 2754 2757 2759 2762 2765 2768 2771 2774 2777 2779 2782 2784 2786 2788 2790 2791 2792 2793 2794 2795 2796 2797 2798 2798 2799 2799 2799 2799 2798 2798 2798 2797 2796 2793 2791 2789 2787 2785
2746 2744 2742 2741 2739 2737 2736 2735 2734 2733 2732 2732 2733 2733 2734 2736 2737 2739 2740 2741 2743 2744 2746 2747 2749 2752 2754 2757 2760 2763 2766 2769 2772 2774 2777 2779 2781 2783 2785 2786 2787 2788 2790 2791 2792 2793 2794 2795 2795 2796 2796 2796 2796 2795 2795 2794 2793 2791 2789 2787 2786 2783 2781
2744 2742 2740 2739 2737 2736 2735 2734 2734 2732 2731 2732 2732 2733 2733 2735 2737 2738 2739 2740 2742 2743 2744 2746 2748 2750 2753 2755 2758 2762 2764 2766 2770 2773 2775 2777 2779 2780 2781 2783 2784 2786 2787 2788 2789 2790 2791 2792 2792 2792 2793 2793 2793 2792 2791 2790 2788 2787 2786 2784 2782 2779 2777
2742 2740 2738 2737 2736 2735 2734 2734 2733 2732 2731 2732 2733 2733 2734 2735 2737 2738 2739 2740 2741 2742 2743 2745 2747 2749 2752 2754 2757 2760 2762 2765 2769 2771 2773 2774 2776 2777 2779 2780 2782 2783 2785 2786 2787 2788 2789 2789 2789 2790 2790 2790 2790 2789 2788 2786 2785 2784 2782 2781 2778 2775 2772
2740 2738 2737 2735 2734 2733 2733 2733 2732 2732 2731 2732 2733 2734 2735 2736 2737 2738 2739 2740 2740 2742 2743 2746 2748 2750 2752 2755 2757 2759 2762 2765 2767 2769 2770 2772 2773 2775 2776 2778 2780 2781 2782 2784 2785 2785 2786 2786 2787 2787 2787 2787 2786 2786 2785 2784 2782 2781 2779 2777 2775 2772 2769
2738 2736 2735 2734 2733 2732 2731 2731 2731 2731 2731 2732 2732 2734 2735 2736 2737 2738 2738 2739 2740 2742 2744 2747 2749 2751 2753 2754 2757 2759 2761 2763 2765 2766 2768 2770 2771 2773 2774 2776 2777 2779 2780 2781 2782 2783 2784 2784 2784 2785 2784 2784 2784 2783 2782 2781 2780 2778 2776 2773 2771 2768 2766
2736 2734 2733 2733 2732 2731 2730 2731 2731 2731 2731 2731 2732 2734 2735 2736 2737 2738 2738 2739 2741 2742 2744 2747 2749 2750 2752 2754 2756 2757 2759 2760 2762 2764 2766 2768 2769 2771 2773 2774 2775 2777 2778 2779 2780 2781 2781 2782 2782 2782 2782 2781 2781 2780 2779 2778 2776 2775 2772 2770 2768 2765 2763
2734 2733 2732 2731 2731 2730 2730 2730 2730 2730 2731 2731 2732 2733 2735 2736 2737 2738 2739 2739 2741 2742 2744 2746 2747 2749 2751 2753 2754 2756 2757 2758 2761 2763 2765 2766 2768 2769 2771 2772 2774 2775 2777 2778 2778 2779 2779 2779 2779 2779 2779 2779 2778 2777 2776 2775 2773 2771 2769 2767 2765 2762 2760
2732 2731 2729 2729 2729 2729 2729 2729 2729 2730 2730 2731 2732 2733 2734 2736 2737 2738 2738 2739 2741 2742 2743 2745 2746 2748 2750 2751 2753 2754 2756 2758 2760 2762 2763 2765 2766 2768 2769 2771 2773 2774 2775 2776 2776 2777 2777 2777 2777 2777 2777 2776 2775 2774 2773 2772 2770 2768 2766 2764 2762 2759 2756
2731 2729 2727 2725 2725 2726 2726 2726 2727 2728 2729 2730 2731 2732 2733 2735 2736 2737 2738 2739 2740 2742 2743 2744 2745 2746 2748 2750 2752 2753 2755 2757 2759 2761 2762 2764 2765 2767 2768 2770 2771 2773 2773 2774 2774 2774 2775 2775 2775 2775 2774 2773 2772 2771 2770 2768 2767 2765 2763 2761 2758 2756 2753
2728 2726 2724 2721 2720 2721 2721 2722 2724 2725 2727 2729 2730 2731 2732 2734 2735 2736 2738 2739 2740 2741 2742 2743 2744 2746 2747 2749 2751 2752 2754 2756 2758 2760 2761 2763 2764 2766 2768 2769 2770 2771 2772 2772 2772 2772 2773 2773 2773 2772 2772 2771 2770 2768 2767 2766 2764 2762 2760 2758 2755 2753 2750
2725 2723 2720 2718 2717 2717 2718 2720 2721 2723 2725 2727 2729 2730 2732 2733 2734 2736 2737 2738 2739 2741 2742 2742 2743 2745 2746 2748 2750 2752 2754 2755 2757 2759 2760 2762 2763 2765 2767 2768 2769 2769 2770 2770 2770 2771 2771 2771 2771 2770 2769 2768 2767 2766 2765 2763 2762 2759 2757 2755 2753 2751 2748
2723 2720 2718 2716 2715 2716 2717 2719 2720 2722 2724 2726 2728 2729 2731 2732 2733 2734 2736 2737 2739 2740 2741 2742 2743 2744 2745 2747 2749 2751 2753 2755 2756 2758 2760 2761 2763 2764 2765 2766 2767 2767 2768 2768 2769 2769 2769 2769 2769 2768 2767 2766 2765 2763 2762 2761 2759 2757 2755 2753 2751 2748 2745
2723 2720 2719 2717 2716 2717 2717 2718 2720 2721 2723 2725 2727 2729 2730 2731 2733 2734 2735 2737 2738 2739 2740 2741 2742 2743 2745 2746 2748 2750 2752 2754 2756 2757 2759 2760 2762 2763 2764 2765 2765 2766 2766 2767 2767 2768 2768 2767 2766 2765 2764 2763 2762 2761 2759 2758 2756 2754 2752 2750 2748 2745 2742
2723 2721 2720 2719 2719 2718 2719 2719 2720 2721 2723 2725 2727 2728 2729 2731 2733 2734 2735 2737 2738 2738 2739 2740 2741 2743 2744 2746 2748 2749 2751 2753 2755 2756 2758 2759 2761 2762 2763 2763 2764 2765 2765 2766 2766 2766 2765 2765 2764 2763 2762 2761 2760 2759 2757 2755 2753 2751 2749 2747 2745 2742 2739